FW9098 Weather Reports


time (UTC)temp
C
wind
direction
speed
KPH
gust
KPH
rain 1hr
cm
rain 24hr
cm
rain mn
cm
humidity
%
barometer
mb
20260506014035 17 340 9.7 17.7 0.00 0.00 0.00 66 1007.4
20260506013535 17 303 8.0 16.1 0.00 0.00 0.00 66 1007.3
20260506013056 17 286 4.8 12.9 0.00 0.00 0.00 65 1007.4
20260506012539 17 270 4.8 12.9 0.00 0.00 0.00 65 1007.3
20260506012037 17 270 4.8 19.3 0.00 0.00 0.00 64 1007.4
20260506011548 17 289 6.4 19.3 0.00 0.00 0.00 64 1007.4
20260506011035 17 271 8.0 19.3 0.00 0.00 0.00 64 1007.3
20260506010537 17 273 6.4 24.1 0.00 0.00 0.00 64 1007.2
20260506010050 17 246 8.0 24.1 0.00 0.00 0.00 64 1007.2
20260506005535 17 267 8.0 17.7 0.00 0.00 0.00 64 1007.2
20260506005037 17 273 8.0 16.1 0.00 0.00 0.00 65 1007.1
20260506004546 17 313 3.2 14.5 0.00 0.00 0.00 65 1007.1
20260506004036 16 335 4.8 14.5 0.00 0.00 0.00 65 1007.0
20260506003536 16 306 4.8 9.7 0.00 0.00 0.00 65 1007.0
20260506003050 16 274 4.8 9.7 0.00 0.00 0.00 66 1006.8
20260506002535 15 302 3.2 6.4 0.00 0.00 0.00 66 1006.7
20260506002035 15 279 0.0 3.2 0.00 0.00 0.00 65 1006.7
20260506001554 15 0 0.0 3.2 0.00 0.00 0.00 65 1006.6
20260506001036 15 0 0.0 0.0 0.00 0.00 0.00 65 1006.6
20260506000535 15 0 0.0 0.0 0.00 0.00 0.00 65 1006.7
20260506000054 15 0 0.0 0.0 0.00 0.00 0.00 66 1006.6
20260505235535 15 0 0.0 1.6 0.00 0.00 0.00 66 1006.4
20260505235037 15 0 0.0 1.6 0.00 0.00 0.00 65 1006.3
20260505234546 15 0 0.0 1.6 0.00 0.00 0.00 65 1006.4
20260505234035 15 0 0.0 0.0 0.00 0.00 0.00 65 1006.4
20260505233541 15 0 0.0 0.0 0.00 0.00 0.00 65 1006.2
20260505233056 15 0 0.0 0.0 0.00 0.00 0.00 64 1006.2
20260505232536 15 0 0.0 0.0 0.00 0.00 0.00 64 1006.1
20260505232036 15 0 0.0 0.0 0.00 0.00 0.00 65 1006.1
20260505231552 15 0 0.0 0.0 0.00 0.00 0.00 65 1006.0
20260505231036 15 0 0.0 0.0 0.00 0.00 0.00 64 1006.0
20260505230536 15 0 0.0 4.8 0.00 0.00 0.00 64 1005.9
20260505230112 15 0 0.0 4.8 0.00 0.00 0.00 64 1005.9
20260505225536 15 112 0.0 4.8 0.00 0.00 0.00 64 1005.9
20260505225035 15 119 0.0 3.2 0.00 0.00 0.00 64 1005.8
20260505224545 15 0 0.0 0.0 0.00 0.00 0.00 63 1005.7
20260505224036 15 0 0.0 0.0 0.00 0.00 0.00 62 1005.6
20260505223535 15 0 0.0 0.0 0.00 0.00 0.00 63 1005.6
20260505223047 15 0 0.0 0.0 0.00 0.00 0.00 63 1005.5
20260505222536 15 0 0.0 1.6 0.00 0.00 0.00 63 1005.4
20260505222040 15 0 0.0 1.6 0.00 0.00 0.00 62 1005.4
20260505221557 15 0 0.0 4.8 0.00 0.00 0.00 62 1005.4
20260505221037 16 121 0.0 4.8 0.00 0.00 0.00 61 1005.3
20260505220536 16 121 0.0 4.8 0.00 0.00 0.00 60 1005.2
20260505220056 16 0 0.0 0.0 0.00 0.00 0.00 60 1005.2
20260505215537 16 0 0.0 3.2 0.00 0.00 0.00 60 1005.2
20260505215036 16 0 0.0 3.2 0.00 0.00 0.00 59 1005.0
20260505214548 16 0 0.0 3.2 0.00 0.00 0.00 59 1005.0
20260505214035 16 0 0.0 4.8 0.00 0.00 0.00 59 1004.9
20260505213536 16 122 0.0 4.8 0.00 0.00 0.00 59 1004.9
20260505213053 16 0 0.0 3.2 0.00 0.00 0.00 59 1004.9
20260505212535 16 0 0.0 4.8 0.00 0.00 0.00 59 1004.9
20260505212036 16 0 0.0 9.7 0.00 0.00 0.00 58 1004.8
20260505211600 16 118 1.6 9.7 0.00 0.00 0.00 58 1004.8
20260505211036 16 117 3.2 9.7 0.00 0.00 0.00 58 1004.7
20260505210535 17 122 3.2 8.0 0.00 0.00 0.00 57 1004.8
20260505210056 17 109 1.6 4.8 0.00 0.00 0.00 57 1004.8
20260505205535 17 113 0.0 4.8 0.00 0.00 0.00 56 1004.7
20260505205035 17 113 1.6 8.0 0.00 0.00 0.00 56 1004.6
20260505204550 17 117 1.6 12.9 0.00 0.00 0.00 56 1004.6
20260505204034 17 134 3.2 12.9 0.00 0.00 0.00 56 1004.2
20260505203534 17 360 3.2 12.9 0.00 0.00 0.00 56 1004.2
20260505203043 17 115 1.6 12.9 0.00 0.00 0.00 56 1004.2
20260505202534 17 116 4.8 12.9 0.00 0.00 0.00 55 1004.0
20260505202034 17 118 3.2 14.5 0.00 0.00 0.00 55 1004.1
20260505201549 17 119 3.2 14.5 0.00 0.00 0.00 55 1004.0
20260505201038 17 0 6.4 14.5 0.00 0.00 0.00 54 1004.0
20260505200534 18 117 3.2 17.7 0.00 0.00 0.00 54 1004.0
20260505200056 18 117 6.4 17.7 0.00 0.00 0.00 54 1003.9
20260505195536 18 131 3.2 14.5 0.00 0.00 0.00 54 1004.0
20260505195035 18 0 3.2 17.7 0.00 0.00 0.00 54 1003.9
20260505194549 18 123 4.8 17.7 0.00 0.00 0.00 53 1004.0
20260505194035 18 123 6.4 14.5 0.00 0.00 0.00 53 1003.9
20260505193536 18 115 3.2 16.1 0.00 0.00 0.00 53 1004.0
20260505193059 18 119 3.2 17.7 0.00 0.00 0.00 52 1003.9
20260505192536 18 131 6.4 19.3 0.00 0.00 0.00 52 1003.9
20260505192033 18 132 4.8 19.3 0.00 0.00 0.00 52 1003.8
20260505191549 18 117 4.8 17.7 0.00 0.00 0.00 52 1003.8
20260505191038 18 153 6.4 17.7 0.00 0.00 0.00 51 1003.8
20260505190538 18 103 6.4 20.9 0.00 0.00 0.00 51 1003.8
20260505190052 18 108 6.4 20.9 0.00 0.00 0.00 51 1003.9
20260505185536 18 119 8.0 20.9 0.00 0.00 0.00 51 1003.9
20260505185034 19 117 6.4 19.3 0.00 0.00 0.00 51 1003.9
20260505184551 19 100 4.8 19.3 0.00 0.00 0.00 50 1003.9
20260505184035 19 109 6.4 19.3 0.00 0.00 0.00 50 1003.8
20260505183537 19 118 6.4 20.9 0.00 0.00 0.00 50 1003.8
20260505183045 19 125 8.0 20.9 0.00 0.00 0.00 49 1003.7
20260505182535 19 193 8.0 20.9 0.00 0.00 0.00 49 1003.8
20260505182035 20 155 6.4 27.4 0.00 0.00 0.00 48 1003.9
20260505181554 20 136 8.0 27.4 0.00 0.00 0.00 48 1003.8
20260505181035 20 131 11.3 27.4 0.00 0.00 0.00 48 1003.9
20260505180535 20 150 11.3 25.7 0.00 0.00 0.00 47 1003.8
20260505180054 20 130 8.0 29.0 0.00 0.00 0.00 47 1003.8
20260505175534 20 119 9.7 29.0 0.00 0.00 0.00 46 1003.9
20260505175034 20 119 11.3 25.7 0.00 0.00 0.00 46 1003.8
20260505174603 21 119 9.7 22.5 0.00 0.00 0.00 45 1003.8
20260505174035 21 159 6.4 24.1 0.00 0.00 0.00 45 1003.8
20260505173536 21 124 9.7 24.1 0.00 0.00 0.00 44 1003.9
20260505173047 21 121 4.8 38.6 0.00 0.00 0.00 44 1003.8
20260505172535 21 125 8.0 38.6 0.00 0.00 0.00 44 1003.9
20260505172038 22 161 11.3 38.6 0.00 0.00 0.00 43 1003.8
20260505171548 22 128 14.5 32.2 0.00 0.00 0.00 43 1003.8
20260505171036 22 136 9.7 30.6 0.00 0.00 0.00 43 1003.9
20260505170536 22 146 9.7 30.6 0.00 0.00 0.00 42 1004.1
20260505170046 22 121 9.7 32.2 0.00 0.00 0.00 42 1003.9
20260505165538 22 153 14.5 32.2 0.00 0.00 0.00 41 1003.9
20260505165035 23 126 11.3 30.6 0.00 0.00 0.00 42 1004.0
20260505164550 22 111 12.9 30.6 0.00 0.00 0.00 42 1003.9
20260505164035 22 155 9.7 29.0 0.00 0.00 0.00 43 1003.9
20260505163534 22 151 8.0 33.8 0.00 0.00 0.00 43 1004.1
20260505163054 22 148 9.7 38.6 0.00 0.00 0.00 42 1004.0
20260505162536 22 155 14.5 38.6 0.00 0.00 0.00 42 1004.2
20260505162035 23 138 12.9 38.6 0.00 0.00 0.00 41 1004.0
20260505161548 23 138 14.5 37.0 0.00 0.00 0.00 41 1004.2
20260505161036 23 155 11.3 30.6 0.00 0.00 0.00 41 1004.2
20260505160536 23 137 9.7 38.6 0.00 0.00 0.00 41 1004.1
20260505153047 24 139 8.0 25.7 0.00 0.00 0.00 39 1004.2
20260505152535 24 142 12.9 37.0 0.00 0.00 0.00 39 1004.3
20260505152035 24 139 9.7 37.0 0.00 0.00 0.00 38 1004.2
20260505151549 25 144 14.5 38.6 0.00 0.00 0.00 38 1004.2
20260505151035 25 127 16.1 38.6 0.00 0.00 0.00 37 1004.3
20260505150536 25 192 9.7 37.0 0.00 0.00 0.00 36 1004.3
20260505140535 27 140 16.1 33.8 0.00 0.00 0.00 31 1004.5
20260505125037 28 117 8.0 30.6 0.00 0.00 0.00 25 1005.2
20260505124551 28 152 9.7 33.8 0.00 0.00 0.00 25 1005.3
20260505124035 27 108 16.1 33.8 0.00 0.00 0.00 25 1005.3
20260505123536 28 124 14.5 37.0 0.00 0.00 0.00 24 1005.3
20260505123056 28 107 11.3 37.0 0.00 0.00 0.00 25 1005.5
20260505122536 28 114 12.9 32.2 0.00 0.00 0.00 25 1005.4
20260505122034 28 113 11.3 32.2 0.00 0.00 0.00 24 1005.5
20260505121552 28 131 12.9 33.8 0.00 0.00 0.00 24 1005.5
20260505121038 28 112 11.3 33.8 0.00 0.00 0.00 25 1005.6
20260505120534 27 149 11.3 33.8 0.00 0.00 0.00 24 1005.7
20260505120051 28 115 9.7 29.0 0.00 0.00 0.00 24 1005.9
20260505115535 27 136 11.3 32.2 0.00 0.00 0.00 25 1005.9
20260505115034 27 129 6.4 32.2 0.00 0.00 0.00 25 1005.9
20260505114552 27 117 16.1 32.2 0.00 0.00 0.00 26 1006.1
20260505114036 27 126 8.0 32.2 0.00 0.00 0.00 27 1006.1
20260505113535 27 132 14.5 32.2 0.00 0.00 0.00 26 1006.2
20260505113100 27 117 11.3 30.6 0.00 0.00 0.00 28 1006.2
20260505112537 27 117 11.3 30.6 0.00 0.00 0.00 28 1006.3
20260505112035 27 110 12.9 32.2 0.00 0.00 0.00 28 1006.1
20260505111546 27 130 14.5 32.2 0.00 0.00 0.00 28 1006.2
20260505111036 27 89 11.3 27.4 0.00 0.00 0.00 27 1006.2
20260505110535 27 92 12.9 29.0 0.00 0.00 0.00 27 1006.4
20260505102035 23 78 3.2 11.3 0.00 0.00 0.00 44 1007.4
20260505101551 22 19 3.2 11.3 0.00 0.00 0.00 47 1007.4
20260505101036 22 0 1.6 6.4 0.00 0.00 0.00 47 1007.6
20260505100538 22 110 0.0 9.7 0.00 0.00 0.00 48 1007.6
20260505100048 22 0 0.0 11.3 0.00 0.00 0.00 48 1007.8
20260505095538 22 119 1.6 16.1 0.00 0.00 0.00 47 1007.9
20260505095035 22 96 6.4 16.1 0.00 0.00 0.00 46 1008.0
20260505094614 21 128 3.2 12.9 0.00 0.00 0.00 47 1008.0
20260505094035 21 94 4.8 12.9 0.00 0.00 0.00 46 1008.2
20260505093538 21 118 1.6 11.3 0.00 0.00 0.00 49 1008.2
20260505093057 21 98 1.6 11.3 0.00 0.00 0.00 49 1008.3
20260505092539 21 118 3.2 9.7 0.00 0.00 0.00 49 1008.4
20260505092037 21 96 0.0 12.9 0.00 0.00 0.00 49 1008.5
20260505091549 20 118 3.2 12.9 0.00 0.00 0.00 50 1008.6
20260505091035 20 93 4.8 12.9 0.00 0.00 0.00 50 1008.6
20260505090535 20 0 3.2 11.3 0.00 0.00 0.00 49 1008.6
20260505090053 20 73 1.6 11.3 0.00 0.00 0.00 51 1008.6
20260505085536 20 124 1.6 9.7 0.00 0.00 0.00 51 1008.6
20260505085035 20 141 3.2 11.3 0.00 0.00 0.00 53 1008.7
20260505084554 19 109 4.8 11.3 0.00 0.00 0.00 52 1008.7
20260505084035 18 107 0.0 9.7 0.00 0.00 0.00 55 1008.8
20260505083535 18 109 1.6 9.7 0.00 0.00 0.00 53 1008.8
20260505083100 18 115 1.6 11.3 0.00 0.00 0.00 53 1008.8
20260505082536 18 134 1.6 11.3 0.00 0.00 0.00 54 1008.8
20260505082035 18 108 3.2 9.7 0.00 0.00 0.00 53 1008.8
20260505081556 18 98 1.6 6.4 0.00 0.00 0.00 54 1008.9
20260505081037 18 118 1.6 11.3 0.00 0.00 0.00 56 1008.9
20260505080535 18 0 1.6 11.3 0.00 0.00 0.00 55 1008.9
20260505080050 18 77 3.2 11.3 0.00 0.00 0.00 54 1008.9
20260505075535 18 109 3.2 9.7 0.00 0.00 0.00 57 1008.8
20260505075035 17 75 1.6 6.4 0.00 0.00 0.00 58 1008.8
20260505074549 17 114 1.6 8.0 0.00 0.00 0.00 58 1008.9
20260505074038 17 0 1.6 9.7 0.00 0.00 0.00 58 1009.0
20260505073535 17 130 3.2 9.7 0.00 0.00 0.00 59 1009.0
20260505073053 17 99 1.6 6.4 0.00 0.00 0.00 61 1009.1
20260505072538 16 115 0.0 6.4 0.00 0.00 0.00 62 1009.2
20260505072034 16 0 0.0 6.4 0.00 0.00 0.00 62 1009.1
20260505071552 16 101 1.6 6.4 0.00 0.00 0.00 63 1009.1
20260505071035 15 46 3.2 6.4 0.00 0.00 0.00 63 1009.1
20260505070536 15 44 0.0 4.8 0.00 0.00 0.00 64 1009.2
20260505070048 15 89 0.0 4.8 0.00 0.00 0.00 63 1009.1
20260505065536 15 104 0.0 4.8 0.00 0.00 0.00 65 1009.2
20260505065034 14 0 0.0 4.8 0.00 0.00 0.00 66 1009.2
20260505064550 14 0 1.6 4.8 0.00 0.00 0.00 65 1009.2
20260505064035 14 110 0.0 4.8 0.00 0.00 0.00 66 1009.1
20260505063535 14 0 0.0 6.4 0.00 0.00 0.00 66 1009.0
20260505063051 14 113 1.6 9.7 0.00 0.00 0.00 65 1009.0
20260505062538 14 114 0.0 9.7 0.00 0.00 0.00 66 1009.1
20260505062038 14 114 3.2 9.7 0.00 0.00 0.00 65 1009.1
20260505061554 14 111 1.6 6.4 0.00 0.00 0.00 65 1009.0
20260505061035 14 0 1.6 6.4 0.00 0.00 0.00 65 1008.9
20260505060536 14 103 0.0 3.2 0.00 0.00 0.00 65 1008.9
20260505060052 14 0 0.0 3.2 0.00 0.00 0.00 66 1008.9
20260505055536 14 0 0.0 4.8 0.00 0.00 0.00 66 1008.9
20260505055036 13 0 0.0 4.8 0.00 0.00 0.00 67 1008.9
20260505054556 13 0 1.6 4.8 0.00 0.00 0.00 67 1008.8
20260505054037 13 0 0.0 4.8 0.00 0.00 0.00 67 1008.9
20260505053536 13 97 0.0 4.8 0.00 0.00 0.00 68 1008.9
20260505053051 13 0 0.0 0.0 0.00 0.00 0.00 69 1008.8
20260505052536 13 0 0.0 0.0 0.00 0.00 0.00 68 1008.8
20260505052036 13 0 0.0 0.0 0.00 0.00 0.00 69 1008.8
20260505051544 12 0 0.0 0.0 0.00 0.00 0.00 71 1008.8
20260505051036 12 0 0.0 0.0 0.00 0.00 0.00 72 1008.8
20260505050536 12 0 0.0 0.0 0.00 0.00 0.00 73 1008.9
20260505041549 11 0 0.0 0.0 0.00 0.00 0.00 76 1008.7
20260505041037 11 0 0.0 0.0 0.00 0.00 0.00 76 1008.7
20260505040536 11 0 0.0 0.0 0.00 0.00 0.00 76 1008.7
20260505035536 11 0 0.0 0.0 0.00 0.00 0.00 76 1008.9
20260505035036 11 0 0.0 0.0 0.00 0.00 0.00 76 1008.8
20260505034552 11 0 0.0 0.0 0.00 0.00 0.00 75 1008.8
20260505034035 11 0 0.0 0.0 0.00 0.00 0.00 75 1008.8
20260505033536 11 0 0.0 0.0 0.00 0.00 0.00 75 1008.9
20260505033049 11 0 0.0 0.0 0.00 0.00 0.00 75 1008.9
20260505032540 11 0 0.0 0.0 0.00 0.00 0.00 75 1008.9
20260505032035 11 0 0.0 0.0 0.00 0.00 0.00 75 1008.8
20260505031557 11 0 0.0 0.0 0.00 0.00 0.00 75 1008.8
20260505031036 11 0 0.0 0.0 0.00 0.00 0.00 74 1008.8
20260505030537 11 0 0.0 0.0 0.00 0.00 0.00 74 1008.9
20260505025537 11 0 0.0 0.0 0.00 0.00 0.00 73 1009.0
20260505025036 11 0 0.0 0.0 0.00 0.00 0.00 73 1009.0
20260505024551 11 0 0.0 0.0 0.00 0.00 0.00 73 1009.0
20260505024035 11 0 0.0 0.0 0.00 0.00 0.00 73 1009.0
20260505023536 11 0 0.0 0.0 0.00 0.00 0.00 73 1009.0
20260505023048 11 0 0.0 0.0 0.00 0.00 0.00 73 1009.0
20260505022536 11 0 0.0 0.0 0.00 0.00 0.00 73 1009.0
20260505022035 11 0 0.0 0.0 0.00 0.00 0.00 72 1009.0
20260505021550 12 0 0.0 0.0 0.00 0.00 0.00 72 1009.1
20260505021035 12 0 0.0 0.0 0.00 0.00 0.00 72 1009.2
20260505020535 12 0 0.0 0.0 0.00 0.00 0.00 72 1009.2
20260505020055 12 0 0.0 0.0 0.00 0.00 0.00 72 1009.2
20260505015535 12 0 0.0 0.0 0.00 0.00 0.00 71 1009.2
20260505015035 12 0 0.0 0.0 0.00 0.00 0.00 71 1009.2
20260505014604 12 0 0.0 0.0 0.00 0.00 0.00 70 1009.2